Regional Weather Roundup
Issued by NWS

Home | Current Version | Previous Version | Graphics & Text | Print | Product List | Glossary On
Versions: 1 2 3 4 5 6 7 8 9 10 11 12 13 14 15 16 17 18 19 20 21 22 23 24 25 26 27 28 29 30 31 32 33 34 35 36 37 38 39 40 41 42 43 44 45 46 47 48 49 50
000
ASUS45 KSLC 241210
RWRUT

UTAH REGIONAL WEATHER ROUNDUP
NATIONAL WEATHER SERVICE SALT LAKE CITY UT
500 AM MST MON NOV 24 2014

UTZ001>011-023>025-241300-

NORTHERN UTAH

CITY           SKY/WX    TMP DP  RH WIND       PRES   REMARKS
BRIGHAM CITY   CLOUDY    36  23  59 CALM      30.19S
HILL AFB       MOCLDY    32  25  74 W16       30.18S WCI  21
LOGAN          CLOUDY    34  24  67 NW5       30.16R WCI  30
OGDEN          MOCLDY    35  24  64 W14G22    30.18R WCI  26
PROVO AIRPORT  CLOUDY    30  27  86 E6        30.22F WCI  24
SALT LAKE CITY CLOUDY    38  22  52 NW7       30.20R WCI  33
VERNAL         PTCLDY    21  12  68 CALM      30.07S
WENDOVER       CLOUDY    37  18  44 NW17      30.24S WCI  28
HEBER CITY     LGT SNOW  28  27  93 SW8       30.16R WCI  20
WEST JORDAN    CLEAR     32  27  80 W20G26    30.21R WCI  20

$$

UTZ012>022-026-027-241300-

SOUTHERN/CENTRAL UTAH

CITY           SKY/WX    TMP DP  RH WIND       PRES   REMARKS
BLANDING       PTCLDY    22  10  59 N3        30.21R
BRYCE CANYON   PTCLDY    16   6  65 NW7       30.19S WCI   6
CEDAR CITY     CLEAR     17  10  74 NE5       30.22S WCI  10
DELTA          CLOUDY    24  20  87 CALM      30.25R
MILFORD        CLEAR     18  12  77 S5        30.24R WCI  11
MOAB/CYNLANDS  CLEAR     27  12  53 S5        30.14S WCI  22
PRICE          MOCLDY    30  15  53 NW8       30.12R WCI  22
ST GEORGE      CLOUDY    34   9  35 S3        30.27S
KANAB          PTCLDY    16   3  57 CALM      30.27F

$$

REGIONAL REPORTS     COLORADO/ARIZONA

CITY           SKY/WX    TMP DP  RH WIND       PRES   REMARKS
CRAIG, CO      LGT SNOW  23  19  85 SW13      30.02F VSB 3/4 WCI  11
GRAND JUNCTION CLOUDY    26  15  63 E6        30.13S WCI  19
RIFLE          CLOUDY    22  15  75 SW5       30.12R WCI  16
MONTROSE       CLOUDY    24  13  62 SE9       30.14F WCI  14
CORTEZ         CLEAR     12   9  87 CALM      30.14F
PAGE, AZ       NOT AVBL
GRAND CANYON   PTCLDY     5  -7  57 CALM      30.22F
KINGMAN        CLEAR     29   7  39 CALM      30.24F
FLAGSTAFF      CLEAR     29  -4  24 VRB5      30.19F WCI  24

$$

REGIONAL REPORTS    NEVADA/IDAHO/WYOMING

CITY           SKY/WX    TMP DP  RH WIND       PRES   REMARKS
LAS VEGAS, NV  PTCLDY    41   9  26 S10       30.22S
ELY            PTCLDY    10  32 100 VRB5      30.30R WCI   2
ELKO           CLEAR     23  19  85 CALM      30.32S
POCATELLO, ID  CLEAR     29  26  89 SW15      30.17R WCI  18
BURLEY         CLEAR     32  26  78 W20G30    30.19R WCI  20
EVANSTON, WY   LGT SNOW  22  21  96 SW20      30.08R VSB 1   WCI   7
ROCK SPRINGS   CLOUDY    23  18  81 W29G36    29.98S WCI   6
KEMMERER       LGT SNOW  23  23 100 W18G29    30.02R VSB 1   WCI   9

$$


USA.gov is the U.S. government's official web portal to all federal, state and local government web resources and services.